* Astronomy

Members Login
Username 
 
Password 
    Remember Me  
Post Info TOPIC: Soyuz SL4 rocket body re-entry


L

Posts: 131433
Date:
RE: Soyuz SL4 rocket body re-entry
Permalink  
 


Update
The Soyuz SL4 rocket body re-entered the Earths atmosphere on the 1st July, 2011 @ 13:05 GMT 1 minute.

Inclination: 81.39
Revolution Number: 62
Predicted Location: 0N, 0E



__________________


L

Posts: 131433
Date:
Permalink  
 

Update
The Soyuz SL4 rocket body is predicted to re-enter the Earths atmosphere on the 1st July, 2011 @ 11:55 GMT 1 hour.

SL4 RB
1 37727U 11028B   11182.34086325  .13970154 -10972-5  19917-3 0   279
2 37727 081.3843 175.2130 0012422 069.9030 290.4813 16.48237811   606

Period: 88.41 minutes
Inclination: 81.39
Apogee: 216 km
Perigee: 175 km
Revolution Number: 62
Predicted Location: 9.7S, 259.6E



__________________


L

Posts: 131433
Date:
Permalink  
 

Update
The Soyuz SL4 rocket body is predicted to re-enter the Earths atmosphere on the 1st July, 2011 @ 12:43 GMT 7 hours.

SL4 RB
1 37727U 11028B   11181.97560138  .05566786 -10567-5  32942-3 0   250
2 37727 081.3732 175.7037 0015415 087.8532 272.5970 16.40425735   549

Period: 88.41 minutes
Inclination: 81.39
Apogee: 216 km
Perigee: 175 km
Revolution Number: 64
Predicted Location: 29.6N, 70.8E



__________________


L

Posts: 131433
Date:
Permalink  
 

Update
The Soyuz SL4 rocket body is predicted to re-enter the Earths atmosphere on the 1st July, 2011 @ 13:29 GMT 4 hours.

SL4 RB
1 37727U 11028B   11181.73137012  .04514221  00000-0  45708-3 0   238
2 37727 081.3816 176.0540 0017145 082.0741 278.3264 16.37512523   500

Period: 88.41 minutes
Inclination: 81.39
Apogee: 216 km
Perigee: 175 km
Revolution Number: 63
Predicted Location: 37.1S, 240.9E



__________________


L

Posts: 131433
Date:
Permalink  
 

A Soyuz SL4 rocket body that was launched on the 27th June, 2011, from the Plesetsk spaceport, for the Kosmos-2472 satellite mission is predicted to re-enter the Earths atmosphere on the 2nd July, 2011 @ --:-- GMT -- hours.

SL4 RB
1 37727U 11028B   11179.89113726 +.01809689 -10419-5 +47379-3 0 00103
2 37727 081.3904 178.5168 0035227 085.7201 274.8544 16.26659080000200

Period: 88.41 minutes
Inclination: 81.39
Apogee: 216 km
Perigee: 175 km
Revolution Number: -
Predicted Location: -



__________________
Page 1 of 1  sorted by
 
Quick Reply

Please log in to post quick replies.



Create your own FREE Forum
Report Abuse
Powered by ActiveBoard